Regional Weather Roundup
Issued by NWS Tiyan, Guam

Home | Current Version | Previous Version | Text Only | Print | Product List | Glossary On
Versions: 1 2 3 4 5 6 7 8 9 10 11 12 13 14 15 16 17 18 19 20 21 22 23 24 25 26 27 28 29 30 31 32 33 34 35 36 37 38 39 40 41 42 43 44 45 46 47 48 49 50
000
ASGM40 PGUM 220512
RWRGUM
WEATHER ROUNDUP FOR THE MARIANAS
NATIONAL WEATHER SERVICE TIYAN GU
300 PM CHST SUN JAN 22 2017

GUZ001>004-220600-
MARIANA ISLANDS-

CITY           SKY/WX    TMP DP  RH WIND       PRES   REMARKS
GUAM AIRPORT   CLOUDY    82  73  74 NE23G29   29.93S
ANDERSEN AFB   CLOUDY    81  72  74 NE22G30   29.94F
ROTA AIRPORT   PTSUNNY   81  72  74 NE16G25   29.94F
TINIAN AP      PTSUNNY   84  72  65 NE21      29.94F
SAIPAN AP      MOSUNNY   82  72  69 NE18      29.94F

$$




USA.gov is the U.S. government's official web portal to all federal, state and local government web resources and services.